User: anonymous   Login
Location: Bushey
(51.6333°N, 0.3667°W)
Time: 03:01:09
(UTC+00:00)
Language:

Cosmos 1302 Rocket - Orbit

View from above orbital plane
View from above orbital plane
View from above satellite
View from above satellite

Ground track
Ground track

The orbit data is extracted from the following two-line orbital elements,

1 12792U 81084B   21137.34882729  .00000035  00000-0  20370-4 0  9993
2 12792  74.0292 282.3347 0014316 223.9700 136.0316 14.37620440 80249
Epoch (UTC): 17 May 2021 08:22:18
Eccentricity: 0.0014316
inclination: 74.0292°
perigee height: 756 km
apogee height: 776 km
right ascension of ascending node: 282.3347°
argument of perigee: 223.9700°
revolutions per day: 14.37620440
mean anomaly at epoch: 136.0316°
orbit number at epoch: 8024

The dashed part of the orbit path shows where the satellite is in the earth's shadow,  

DLR